Search for airport 
image banner adimage banner adimage banner ad
image banner ad

KNFL - Fallon Nas (Van Voorhis Fld)

Located in Fallon, United States

ICAO - NFL, IATA -

Data provided by Airmate  

General information

Coordinates: N39°25'4" W118°41'55"
Elevation is 3935 feet MSL.
Magnetic variation is 14° East
View others Airports in Nevada

Operational data

Special qualification required
Current time UTC:
Current local time:
Weather
METAR: KNFL 130156Z AUTO 33008KT 10SM CLR 32/01 A2989 RMK AO2 SLP096 T03220011
TAF: TAF KNFL 1223/1323 VRB06KT 9999 FEW080 FEW200 QNH2986INS LAST NO AMDS AFT 1301 NEXT 1407 T15/1313Z T34/1323Z FS30015
View NOTAMs / SUP AIP / TFR affecting this airport [VIEW]
Communications frequencies: [VIEW]

Runways:

RWY identifierQFULength (ft)Width (ft)SurfaceLDA (ft)
0787°7003152ASPH
25267°7003152ASPH
13R145°14004200ASPH
31L325°14004200ASPH
13L145°11078200CONC
31R325°11078200CONC

Airport contact information

Address: Fallon United States

Satellite view of KNFL